Location: Waldport
(44.4270°N, 124.0680°W)
Time: 04:38:51
(UTC-08:00)

Envisat - Visible Passes

Search period start: 23 February 2019 00:00
Search period end: 05 March 2019 00:00
Orbit: 764 x 766 km, 98.2° (Epoch: 23 February)

Date Brightness Start Highest point End Pass type
(mag) Time Alt. Az. Time Alt. Az. Time Alt. Az.
23 Feb 3.2 19:02:12 10° S 19:07:16 74° WSW 19:12:22 10° NNW visible
24 Feb 3.1 18:25:40 10° SSE 18:30:34 53° ENE 18:35:31 10° N visible
24 Feb 5.6 20:06:13 10° SW 20:09:55 20° W 20:13:37 10° NW visible
25 Feb 4.3 19:28:04 10° S 19:32:53 42° W 19:37:43 10° NNW visible
26 Feb 3.0 18:50:58 10° SSE 18:56:03 89° ENE 19:01:11 10° NNW visible
26 Feb 6.2 20:34:10 10° WSW 20:35:46 11° W 20:37:23 10° WNW visible
27 Feb 5.3 19:54:27 10° SSW 19:58:36 25° W 20:02:46 10° NW visible
28 Feb 6.5 06:23:42 10° ENE 06:25:51 13° E 06:28:01 10° ESE visible
28 Feb 3.8 19:16:40 10° S 19:21:38 53° W 19:26:37 10° NNW visible
01 Mar 3.0 18:39:49 10° SSE 18:44:51 72° ENE 18:49:56 10° N visible
01 Mar 6.0 20:21:39 10° WSW 20:24:24 15° W 20:27:11 10° NW visible
02 Mar 4.9 19:42:49 10° SSW 19:47:18 31° W 19:51:48 10° NNW visible
03 Mar 3.4 19:05:21 10° S 19:10:23 67° WSW 19:15:28 10° NNW visible
04 Mar 3.1 18:28:43 10° SSE 18:33:41 58° ENE 18:38:40 10° N visible
04 Mar 5.7 20:09:36 10° SW 20:13:04 18° W 20:16:34 10° NW visible
